CAPE
0 0 1 0 0 0 0 0 1 0 0 0 0 0 0 0 0 0 0 0 0 0 0 0 0 0 0 0 0 0 0 0 0 0 0 0 0 0 0 0 0 0 0 0 0 2 5 0 0 0 0 0 0 0
1 0 0 0 0 0 0 0 0 0 0 0 0 0 0 0 0 0 0 0 0 0 0 0 0 0 0 0 0 0 0 0 0 0 0 0 0 0 0 0 0 0 0 0 0 0 0 0 0 0 0 0 0 0
1 0 0 0 0 0 0 0 0 0 0 0 0 0 0 0 0 0 0 0 0 0 0 0 0 0 0 0 0 0 0 0 0 0 0 0 0 0 0 0 0 0 0 0 0 0 0 0 0 0 0 0 0 0
0 0 0 0 0 0 0 0 0 0 0 0 0 0 0 0 0 0 0 0 0 0 0 0 0 0 0 0 0 0 0 0 0 0 0 0 0 0 0 0 0 0 0 0 0 0 0 0 0 0 0 0 0 0
0 0 0 0 0 0 0 0 0 0 0 0 0 0 0 0 0 0 0 0 0 0 0 0 0 0 0 0 0 0 0 0 0 0 0 0 0 0 0 0 0 0 0 0 0 0 0 0 0 0 0 0 0 0
0 0 0 0 0 0 0 0 0 0 0 0 0 0 0 0 0 0 0 0 0 0 0 0 0 0 0 0 0 0 0 0 0 0 0 0 0 0 0 0 0 0 0 0 0 0 0 0 0 0 0 0 0 0
0 0 0 0 0 0 0 0 0 0 0 0 0 0 0 0 0 0 0 0 0 0 0 0 0 0 0 0 0 0 0 0 0 0 0 0 0 0 0 0 0 0 0 0 0 0 0 0 0 0 0 0 0 0
0 0 0 0 0 0 0 0 0 0 0 0 0 0 0 0 0 0 0 0 0 0 0 0 0 0 0 0 0 0 0 0 0 0 0 0 0 0 0 0 0 0 0 0 0 0 2 0 0 0 0 0 0 0
0 0 0 0 0 1 0 0 0 0 0 0 0 0 0 0 0 0 0 0 0 0 0 0 0 0 0 0 0 0 0 0 0 0 0 0 0 5 3 1 0 0 2 2 0 1 2 2 1 3 1 0 0 0
0 0 0 0 0 0 0 0 0 0 0 0 0 0 0 0 0 0 0 0 0 0 0 0 0 0 0 0 0 0 0 0 0 0 0 0 0 0 2 0 3 0 1 2 3 0 0 5 2 1 5 0 0 0
0 0 0 1 1 0 0 0 0 0 0 0 0 0 0 0 0 0 0 0 0 0 0 0 0 0 0 0 0 0 0 0 0 0 0 0 0 0 0 0 0 16 2 7 3 14 16 17 17 8 1 0 2 1
0 0 1 1 0 0 0 0 0 0 0 0 0 0 0 0 0 0 0 0 0 0 0 0 0 0 0 0 0 0 0 0 0 0 0 0 0 1 2 0 2 5 7 11 12 25 3 29 46 1 6 4 2 2
0 0 1 0 0 0 0 0 0 0 0 0 0 0 0 0 0 0 0 0 0 0 0 0 0 0 0 0 0 0 0 0 0 0 0 0 6 2 1 2 7 17 9 7 3 1 3 3 2 2 2 1 0 2
1 1 0 0 0 0 0 0 0 0 0 0 0 0 0 0 0 0 0 0 0 0 0 0 0 0 0 0 0 0 0 0 0 0 0 9 2 5 10 4 3 2 3 3 4 3 3 4 6 8 5 4 2 1
1 0 1 0 0 0 0 0 0 0 0 0 0 0 0 0 0 0 0 0 0 0 0 0 0 0 3 1 0 0 0 1 2 8 0 14 1 3 10 6 2 2 2 2 3 4 4 4 3 3 2 3 3 2
1 1 0 0 0 0 0 0 0 0 0 0 0 0 0 0 0 0 0 0 0 0 0 0 0 0 12 5 0 1 5 0 1 1 10 13 1 0 8 2 0 0 0 0 0 0 0 2 2 3 2 3 3 4
0 0 0 0 0 0 0 0 0 0 0 0 0 0 0 0 0 0 0 0 0 0 0 0 0 6 5 20 2 0 1 0 5 1 3 23 12 4 0 0 0 0 0 0 0 0 0 0 1 1 1 2 3 3
0 0 0 0 0 0 0 0 0 0 0 0 0 0 0 0 0 0 0 0 0 0 0 0 0 0 2 16 0 0 0 0 0 17 13 11 26 22 5 0 0 0 0 0 0 0 0 0 0 2 3 2 3 2
0 0 0 0 2 13 0 0 0 0 0 0 0 0 0 0 0 0 0 0 0 0 0 0 0 0 0 1 4 9 7 0 0 20 34 17 3 15 36 0 0 0 0 0 0 0 0 0 0 0 0 1 3 2
0 0 0 0 1 2 0 0 0 0 0 0 0 0 0 0 0 0 0 0 0 0 3 0 0 0 0 1 8 12 16 0 7 16 17 32 15 51 39 27 0 0 0 0 0 0 0 0 0 0 0 0 0 0
0 0 0 0 0 0 0 0 0 0 0 0 0 0 0 0 0 0 0 0 0 0 0 0 0 0 0 0 12 26 19 14 32 20 26 26 57 44 37 32 0 0 0 0 0 0 0 0 0 0 0 0 0 0
0 0 0 0 0 0 0 0 0 0 0 0 0 0 0 0 0 0 0 0 0 0 0 0 0 0 0 0 13 12 1 2 20 34 44 43 52 30 9 6 4 0 0 0 0 0 0 0 0 0 0 0 0 0
0 0 0 0 0 0 0 0 0 0 0 0 0 0 0 0 0 0 0 0 0 0 0 0 0 0 6 20 29 8 2 9 14 8 15 15 11 3 0 0 0 0 0 0 0 0 0 0 0 0 0 0 0 0
0 0 0 1 0 0 0 0 0 0 0 0 0 0 0 0 0 1 0 0 0 0 16 44 44 34 19 16 8 7 4 0 0 0 0 0 0 0 0 0 0 0 0 0 0 0 0 0 0 0 0 0 0 0
0 2 0 1 5 9 0 3 0 0 0 0 0 0 0 4 14 0 0 0 0 0 2 1 0 0 0 0 13 1 3 1 0 0 0 0 0 0 0 0 0 0 0 0 0 0 0 0 0 0 0 0 0 0
1 0 2 1 5 2 5 1 0 0 0 0 0 0 11 26 4 0 0 0 0 0 0 0 0 0 0 1 13 14 6 0 0 0 0 0 0 0 0 0 0 0 0 0 0 0 0 0 0 0 0 0 0 0
1 0 0 0 0 0 0 0 0 0 0 4 1 0 8 1 0 0 0 0 0 0 0 0 0 0 0 0 4 6 0 0 0 0 0 0 0 0 0 0 0 0 0 0 0 0 0 0 0 0 0 0 0 0
1 0 0 0 0 0 0 0 0 2 9 1 12 34 22 10 7 0 0 0 0 0 0 0 0 0 0 0 0 3 5 0 0 0 0 0 0 0 0 0 0 0 0 0 0 0 0 0 0 0 0 0 0 0
0 0 0 0 0 0 0 0 0 0 0 17 29 25 27 12 8 0 0 0 0 0 0 0 0 0 0 0 2 5 0 0 0 0 0 0 0 0 0 0 0 0 0 0 0 0 0 0 0 0 0 0 0 0
0 0 0 0 0 0 0 0 0 0 0 0 0 1 3 1 1 0 0 0 0 0 0 0 0 0 0 0 0 0 0 0 0 0 0 0 0 0 0 0 0 0 0 0 0 0 0 0 0 0 0 0 0 0
0 0 0 0 0 0 0 0 0 0 0 0 0 0 0 0 0 0 0 0 0 0 0 0 0 0 0 3 2 0 0 0 0 0 0 0 0 0 0 0 0 0 0 0 0 0 0 0 0 0 0 0 0 0
0 0 0 0 0 0 0 0 0 0 0 0 0 0 0 0 0 0 0 0 0 0 0 0 0 0 0 2 1 0 0 0 0 0 0 0 0 0 0 0 0 0 0 0 0 0 0 0 0 0 0 0 0 0
0 0 0 0 0 0 0 0 0 0 0 0 0 0 0 0 0 0 0 0 0 0 0 0 0 0 0 0 0 0 0 0 0 0 0 0 0 0 0 0 0 0 0 0 0 0 0 0 0 0 0 0 0 0
CIN
-0 -1 -1 -0 -0 -0 -5 -5 -0 -0 -0 -0 -0 -0 -0 -0 -0 -0 -0 -0 -0 -0 -0 -0 -0 -0 -0 -0 -0 -0 -0 -0 -0 -0 -0 -0 -0 -0 -0 -0 -0 -0 -0 -0 -0 -24 -24 -0 -0 -0 -0 -0 -0 -0
-0 -0 -0 -0 -0 -0 -0 -0 -0 -0 -0 -0 -0 -0 -0 -0 -0 -0 -0 -0 -0 -0 -0 -0 -0 -0 -0 -0 -0 -0 -0 -0 -0 -0 -0 -0 -0 -0 -0 -0 -0 -0 -0 -0 -0 -0 -0 -0 -0 -0 -0 -0 -0 -0
-0 -0 -0 -0 -0 -0 -0 -0 -0 -0 -0 -0 -0 -0 -0 -0 -0 -0 -0 -0 -0 -0 -0 -0 -0 -0 -0 -0 -0 -0 -0 -0 -0 -0 -0 -0 -0 -0 -0 -0 -0 -0 -0 -0 -0 -0 -0 -0 -0 -0 -0 -0 -0 -0
-0 -0 -0 -0 -0 -0 -0 -0 -0 -0 -0 -0 -0 -0 -0 -0 -0 -0 -0 -0 -0 -0 -0 -0 -0 -0 -0 -0 -0 -0 -0 -0 -0 -0 -0 -0 -0 -0 -0 -0 -0 -0 -0 -0 -0 -0 -0 -0 -0 -0 -0 -0 -0 -0
-0 -0 -0 -0 -0 -0 -0 -0 -0 -0 -0 -0 -0 -0 -0 -0 -0 -0 -0 -0 -0 -0 -0 -0 -0 -0 -0 -0 -0 -0 -0 -0 -0 -0 -0 -0 -0 -0 -0 -0 -0 -0 -0 -0 -0 -0 -0 -0 -0 -0 -0 -0 -0 -0
-0 -0 -0 -0 -0 -0 -0 -0 -0 -0 -0 -0 -0 -0 -0 -0 -0 -0 -0 -0 -0 -0 -0 -0 -0 -0 -0 -0 -0 -0 -0 -0 -0 -0 -0 -0 -0 -0 -0 -0 -0 -0 -0 -0 -0 -0 -0 -0 -0 -0 -0 -0 -0 -0
-0 -0 -0 -0 -0 -0 -0 -0 -0 -0 -0 -0 -0 -0 -0 -0 -0 -0 -0 -0 -0 -0 -0 -0 -0 -0 -0 -0 -0 -0 -0 -0 -0 -0 -0 -0 -0 -0 -0 -0 -0 -0 -0 -0 -0 -0 -0 -0 -0 -0 -0 -0 -0 -0
-0 -0 -0 -0 -0 -0 -0 -0 -0 -0 -0 -0 -0 -0 -0 -0 -0 -0 -0 -0 -0 -0 -0 -0 -0 -0 -0 -0 -0 -0 -0 -0 -0 -0 -0 -0 -0 -0 -0 -0 -0 -10 -16 -0 -0 -7 -4 -0 -0 -0 -0 -0 -0 -0
-0 -0 -0 -0 -0 -0 -0 -0 -0 -0 -0 -0 -0 -0 -0 -0 -0 -0 -0 -0 -0 -0 -0 -0 -0 -0 -0 -0 -0 -0 -0 -0 -0 -0 -1 -0 -0 -3 -6 -1 -0 -0 -0 -0 -0 -0 -0 -0 -0 -59 -5 -1 -0 -0
-0 -0 -0 -0 -0 -0 -0 -0 -0 -0 -0 -0 -0 -0 -0 -0 -0 -0 -0 -0 -0 -0 -0 -0 -0 -0 -0 -0 -0 -0 -0 -0 -0 -0 -0 -0 -0 -1 -15 -2 -4 -0 -14 -0 -0 -0 -0 -23 -2 -37 -53 -0 -10 -0
-0 -0 -0 -0 -0 -0 -0 -0 -0 -0 -0 -0 -0 -0 -0 -0 -0 -0 -0 -0 -0 -0 -0 -0 -0 -0 -0 -0 -0 -0 -0 -0 -0 -0 -0 -0 -0 -6 -0 -0 -0 -1 -16 -19 -4 -0 -3 -0 -1 -12 -24 -0 -52 -44
-0 -0 -0 -0 -0 -0 -0 -0 -0 -0 -0 -0 -0 -0 -0 -0 -0 -0 -0 -0 -0 -0 -0 -0 -0 -0 -0 -0 -0 -0 -0 -0 -0 -0 -0 -0 -0 -10 -24 -0 -0 -0 -11 -1 -0 -0 -2 -0 -0 -1 -0 -3 -0 -0
-0 -0 -0 -0 -0 -0 -0 -0 -0 -0 -0 -0 -0 -0 -0 -0 -0 -0 -0 -0 -0 -0 -0 -0 -0 -0 -0 -0 -0 -0 -0 -0 -0 -0 -0 -0 -5 -21 -0 -0 -8 -8 -8 -2 -0 -0 -0 -0 -0 -0 -0 -0 -0 -0
-0 -0 -0 -0 -0 -0 -0 -0 -0 -0 -0 -0 -0 -0 -0 -0 -0 -0 -0 -0 -0 -0 -0 -0 -0 -0 -0 -2 -4 -0 -0 -0 -0 -0 -0 -3 -9 -14 -7 -0 -0 -0 -0 -0 -0 -0 -0 -0 -0 -0 -0 -0 -0 -0
-0 -0 -0 -0 -0 -0 -0 -0 -0 -0 -0 -0 -0 -0 -0 -0 -0 -0 -0 -0 -0 -0 -0 -0 -0 -0 -36 -10 -21 -0 -0 -4 -5 -1 -1 -17 -23 -13 -12 -0 -0 -0 -0 -0 -0 -0 -0 -0 -0 -0 -0 -0 -0 -0
-0 -0 -0 -0 -0 -0 -0 -0 -0 -0 -0 -0 -0 -0 -0 -0 -0 -0 -0 -0 -0 -0 -0 -0 -2 -0 -16 -29 -3 -10 -4 -1 -1 -14 -11 -18 -18 -6 -22 -8 -0 -0 -0 -0 -0 -0 -0 -0 -0 -0 -0 -0 -0 -0
-0 -0 -0 -0 -0 -0 -0 -0 -0 -0 -0 -0 -0 -0 -0 -0 -0 -0 -0 -0 -0 -0 -0 -0 -0 -8 -37 -6 -22 -0 -4 -1 -32 -40 -33 -25 -30 -23 -3 -0 -0 -0 -0 -0 -0 -0 -0 -0 -0 -0 -0 -0 -0 -0
-0 -0 -0 -0 -0 -0 -0 -0 -0 -0 -0 -0 -0 -0 -0 -0 -0 -0 -0 -0 -0 -0 -0 -0 -0 -0 -20 -2 -0 -0 -3 -11 -0 -30 -32 -34 -39 -34 -49 -0 -0 -0 -0 -0 -0 -0 -0 -0 -0 -0 -0 -0 -0 -0
-0 -0 -0 -0 -14 -13 -1 -0 -0 -0 -0 -0 -0 -0 -0 -0 -0 -0 -0 -0 -0 -0 -0 -0 -0 -0 -0 -20 -28 -26 -36 -19 -12 -36 -36 -46 -54 -50 -44 -7 -0 -0 -0 -0 -0 -0 -0 -0 -0 -0 -0 -0 -0 -0
-0 -0 -0 -20 -35 -17 -0 -0 -0 -0 -0 -0 -0 -0 -0 -0 -0 -0 -0 -0 -0 -0 -18 -3 -0 -0 -3 -24 -48 -46 -48 -24 -59 -33 -23 -29 -46 -65 -72 -61 -0 -0 -0 -0 -0 -0 -0 -0 -0 -0 -0 -0 -0 -0
-0 -0 -0 -0 -0 -0 -0 -0 -0 -0 -0 -0 -0 -0 -0 -0 -0 -0 -0 -0 -0 -0 -0 -0 -0 -0 -0 -0 -79 -63 -52 -66 -51 -44 -33 -33 -50 -70 -73 -87 -0 -0 -0 -0 -0 -0 -0 -0 -0 -0 -0 -0 -0 -0
-0 -0 -0 -0 -0 -0 -0 -0 -0 -0 -0 -0 -0 -0 -0 -0 -0 -0 -0 -0 -0 -0 -0 -0 -0 -0 -0 -0 -54 -72 -31 -43 -63 -66 -61 -59 -29 -36 -54 -63 -63 -0 -0 -0 -0 -0 -0 -0 -0 -0 -0 -0 -0 -0
-0 -0 -0 -0 -0 -0 -0 -0 -0 -0 -0 -0 -0 -0 -0 -0 -0 -0 -0 -0 -0 -0 -0 -0 -0 -0 -36 -72 -70 -72 -75 -58 -35 -44 -56 -77 -100 -51 -0 -0 -0 -0 -0 -0 -0 -0 -0 -0 -0 -0 -0 -0 -0 -0
-0 -0 -0 -1 -0 -0 -0 -0 -0 -0 -0 -0 -0 -0 -0 -0 -0 -19 -0 -0 -0 -0 -70 -51 -57 -39 -56 -65 -46 -45 -45 -5 -0 -0 -0 -0 -0 -0 -0 -0 -0 -0 -0 -0 -0 -0 -0 -0 -0 -0 -0 -0 -0 -0
-0 -5 -0 -2 -4 -0 -0 -8 -0 -0 -0 -0 -0 -0 -0 -46 -7 -0 -0 -0 -0 -0 -54 -32 -0 -0 -0 -0 -49 -47 -85 -113 -0 -0 -0 -0 -0 -0 -0 -0 -0 -0 -0 -0 -0 -0 -0 -0 -0 -0 -0 -0 -0 -0
-0 -0 -0 -0 -3 -6 -4 -8 -0 -0 -0 -0 -0 -0 -32 -9 -4 -0 -0 -0 -0 -0 -0 -0 -0 -0 -0 -63 -35 -37 -64 -0 -0 -0 -0 -0 -0 -0 -0 -0 -0 -0 -0 -0 -0 -0 -0 -0 -0 -0 -0 -0 -0 -0
-0 -0 -0 -0 -0 -0 -0 -0 -0 -0 -5 -6 -6 -1 -10 -6 -0 -0 -0 -0 -14 -0 -0 -0 -0 -0 -0 -22 -57 -81 -0 -0 -0 -0 -0 -0 -0 -0 -0 -0 -0 -0 -0 -0 -0 -0 -0 -0 -0 -0 -0 -0 -0 -0
-0 -0 -0 -0 -0 -0 -0 -0 -2 -15 -9 -25 -22 -4 -3 -9 -10 -0 -0 -0 -0 -0 -0 -0 -0 -0 -0 -0 -0 -95 -69 -0 -18 -0 -0 -0 -0 -0 -0 -0 -0 -0 -0 -0 -0 -0 -0 -0 -0 -0 -0 -0 -0 -0
-0 -0 -0 -0 -1 -2 -0 -0 -0 -0 -0 -24 -5 -4 -7 -35 -33 -4 -0 -0 -0 -0 -0 -0 -0 -0 -0 -0 -101 -104 -0 -0 -0 -0 -0 -0 -0 -0 -0 -0 -0 -0 -0 -0 -0 -0 -0 -0 -0 -0 -0 -0 -0 -0
-0 -0 -0 -0 -0 -0 -0 -0 -0 -0 -0 -0 -0 -17 -27 -22 -43 -0 -0 -0 -0 -0 -0 -0 -0 -0 -0 -0 -0 -0 -0 -0 -0 -0 -0 -0 -0 -0 -0 -0 -0 -0 -0 -0 -0 -0 -0 -0 -0 -0 -0 -0 -0 -0
-0 -0 -0 -0 -0 -0 -0 -0 -0 -0 -0 -0 -0 -0 -0 -0 -0 -0 -0 -0 -0 -0 -0 -0 -0 -0 -0 -66 -32 -0 -0 -0 -0 -0 -0 -0 -0 -0 -0 -0 -0 -0 -0 -0 -0 -0 -0 -0 -0 -0 -0 -0 -0 -0
-0 -0 -0 -0 -0 -0 -0 -0 -0 -0 -0 -0 -0 -0 -0 -0 -0 -0 -0 -0 -0 -0 -0 -0 -0 -0 -0 -54 -88 -0 -0 -0 -0 -0 -0 -0 -0 -0 -0 -0 -0 -0 -0 -0 -0 -0 -0 -0 -0 -0 -0 -0 -0 -0
-0 -0 -0 -0 -0 -0 -0 -8 -2 -0 -0 -0 -0 -0 -0 -0 -0 -0 -0 -0 -0 -0 -0 -0 -0 -0 -0 -41 -0 -0 -0 -0 -0 -0 -0 -0 -0 -0 -0 -0 -0 -0 -0 -0 -0 -0 -0 -0 -0 -0 -0 -0 -0 -0
Wind_Speed
29 30 29 28 28 27 25 23 20 20 20 22 23 25 26 26 28 23 19 22 20 18 17 15 16 18 19 18 21 25 23 23 24 24 24 23 22 22 23 22 22 23 25 26 25 28 31 27 23 24 24 24 25 27
27 27 26 27 26 25 23 22 19 19 19 21 22 24 25 26 27 24 20 20 19 15 16 15 10 10 11 10 18 20 20 21 20 22 22 21 22 22 22 23 20 22 21 24 23 25 25 22 21 22 23 26 27 28
25 25 24 26 25 24 23 21 19 18 18 20 21 23 24 25 26 23 19 20 20 19 17 16 15 16 17 11 10 19 18 18 19 18 20 20 22 20 23 23 25 23 20 23 27 23 24 28 26 26 28 30 31 30
22 22 23 25 25 24 22 20 17 17 19 19 21 23 24 24 24 21 18 19 20 18 18 15 15 15 13 15 10 7 14 16 17 18 19 20 20 15 19 22 24 27 28 24 26 32 34 30 31 36 37 37 35 33
20 19 21 24 24 22 20 18 16 17 18 19 21 23 24 23 23 19 16 18 18 19 18 16 15 13 14 15 10 8 7 10 14 16 14 15 16 16 14 19 21 16 13 15 14 28 33 40 39 38 41 41 38 38
19 19 20 23 22 20 19 17 18 18 19 20 22 23 23 22 21 16 17 16 20 19 18 18 15 14 16 16 14 10 7 7 9 9 9 10 8 10 9 4 6 17 24 21 25 34 39 44 44 42 42 42 43 44
20 21 21 19 18 18 17 18 18 19 20 21 22 22 20 20 18 16 17 17 15 19 18 16 16 15 15 17 17 15 13 9 8 7 7 5 5 6 4 0 5 2 8 14 21 26 33 19 36 39 42 47 47 47
19 21 21 19 16 15 16 18 19 20 21 22 22 21 20 18 14 16 17 17 14 16 16 16 15 15 18 18 17 20 14 13 14 12 10 7 5 9 9 12 5 10 9 12 15 13 25 33 31 37 36 30 47 49
19 21 19 18 16 14 16 17 19 21 23 23 23 20 16 16 16 17 17 16 17 14 15 15 16 15 19 19 19 19 18 15 14 14 11 11 11 12 10 12 11 11 11 18 18 19 16 20 23 30 14 14 16 25
17 19 19 17 15 16 17 18 20 22 24 21 17 17 17 16 16 15 16 15 15 15 15 14 14 15 17 21 19 21 18 17 16 18 13 15 15 14 16 16 13 15 18 14 16 18 16 20 17 16 14 12 12 12
15 17 16 16 15 17 18 19 20 22 16 17 17 17 17 18 16 16 15 14 14 14 12 13 12 14 16 18 18 18 17 15 16 18 23 17 18 21 27 20 16 12 12 10 12 14 10 7 9 13 24 16 14 16
13 15 15 14 14 16 17 18 18 15 14 16 17 17 17 16 15 15 14 13 12 13 12 13 14 12 15 16 16 18 17 17 16 23 20 20 21 23 19 21 22 15 19 15 19 8 28 10 24 39 36 23 18 17
12 12 12 11 11 14 15 16 17 15 15 16 16 16 15 14 13 12 10 12 12 12 12 13 15 13 14 16 16 17 16 16 15 20 19 17 21 16 19 18 15 16 21 32 36 35 32 11 38 37 28 33 33 24
9 10 8 11 12 12 13 15 16 15 15 15 15 16 12 12 11 10 9 11 12 13 14 14 14 12 13 14 16 17 16 17 21 23 22 18 33 22 22 16 32 29 19 22 20 20 23 35 40 31 21 22 22 21
10 8 8 16 15 14 14 15 15 15 15 16 14 15 13 12 13 12 10 13 13 14 14 15 15 12 11 13 16 17 17 17 17 20 15 15 19 19 27 31 26 27 28 27 30 26 28 32 28 25 19 7 3 3
6 10 14 11 13 14 13 13 14 15 16 16 15 16 14 13 13 13 13 12 13 12 14 15 13 12 10 12 14 17 18 18 18 17 20 16 16 21 28 26 24 11 16 19 19 16 15 16 12 14 15 20 16 21
9 15 11 4 7 9 9 12 12 16 17 17 18 17 17 20 17 14 13 13 14 11 13 14 13 12 12 12 15 16 18 19 23 24 16 12 13 31 31 27 11 12 13 15 13 14 18 15 15 21 19 13 10 12
13 12 7 1 2 8 12 14 16 17 20 20 18 18 16 16 16 16 15 15 11 9 11 12 12 11 10 9 15 17 19 23 25 23 12 8 7 19 28 32 26 23 18 15 11 12 16 16 17 15 14 13 14 13
8 5 3 1 7 12 14 15 16 19 20 19 20 20 18 17 16 18 19 16 9 11 11 11 13 11 8 14 20 21 21 22 25 21 13 7 7 6 9 26 30 9 11 21 27 17 11 16 22 20 22 22 16 21
5 6 4 3 11 15 15 17 16 18 18 17 18 18 16 15 16 15 14 13 11 12 12 11 9 10 13 19 21 21 22 25 24 19 17 16 17 12 11 14 25 25 16 28 32 34 30 34 16 18 15 18 23 18
8 10 10 13 16 18 18 17 18 18 19 18 17 16 17 16 17 16 16 13 15 16 16 6 5 9 14 20 20 21 25 24 21 17 20 17 19 18 8 14 17 20 25 24 26 28 34 38 39 40 41 31 19 15
11 6 11 11 13 15 18 16 17 18 17 17 19 16 17 17 18 18 16 16 19 16 7 3 5 4 13 26 22 23 25 24 22 19 10 13 16 20 17 13 16 19 21 21 26 31 33 27 29 37 39 39 41 36
8 10 12 12 14 15 17 15 15 15 15 15 17 16 16 16 16 14 17 16 17 15 12 9 13 14 19 19 21 25 23 23 23 22 19 18 18 14 10 15 15 17 19 21 21 23 29 31 33 34 34 35 37 38
12 12 13 14 14 16 16 15 14 16 17 17 17 18 17 17 15 16 17 17 16 16 11 10 12 13 17 19 21 19 19 18 18 17 15 15 16 18 19 20 19 17 15 17 21 22 25 28 29 31 32 32 33 34
13 13 14 15 14 15 15 15 15 15 17 17 17 18 17 15 16 17 17 18 15 12 9 12 14 15 19 17 14 15 15 16 14 14 15 15 17 18 18 18 18 18 18 18 21 21 22 24 26 29 30 30 31 31
16 13 12 13 12 10 13 15 13 14 16 17 17 16 15 15 16 16 15 15 11 9 10 14 17 17 15 14 13 14 16 17 12 12 14 16 18 19 16 16 16 17 18 17 19 20 20 21 23 26 27 28 29 29
15 15 12 14 14 14 13 16 17 16 16 15 15 14 14 15 15 15 16 13 11 11 13 16 17 17 17 15 16 17 17 17 13 13 11 15 17 18 18 18 18 17 17 17 17 19 20 21 22 23 25 26 27 27
14 15 11 12 12 15 15 16 15 14 14 14 14 13 14 13 15 17 15 13 12 12 15 17 19 18 19 20 18 18 18 15 10 8 11 13 16 16 17 18 18 19 20 19 18 19 21 22 23 23 23 24 25 26
15 18 17 15 16 16 15 14 16 15 13 11 14 15 14 17 18 19 18 15 14 15 18 20 20 19 20 22 21 20 15 9 5 5 7 9 11 12 14 16 16 17 19 19 19 19 20 21 22 22 22 23 24 25
19 16 17 18 17 17 18 13 17 14 14 16 20 24 25 25 26 23 20 18 21 23 22 22 21 21 21 21 20 16 13 11 2 6 5 7 8 10 11 13 14 15 16 18 18 18 19 19 20 20 21 22 22 24
17 14 18 20 21 23 27 24 22 22 26 30 29 30 31 29 27 25 24 30 30 27 26 28 28 26 25 24 24 18 23 19 18 14 5 9 11 11 11 11 13 13 14 14 16 16 16 16 16 16 17 18 19 20
17 17 17 19 21 20 21 20 23 26 29 29 30 29 28 29 32 31 27 15 8 28 31 32 32 31 30 27 21 17 20 18 10 8 12 12 12 10 11 11 11 12 14 15 15 15 15 16 16 14 14 13 14 15
22 21 21 22 21 21 21 23 22 23 25 26 28 29 29 31 33 28 24 15 27 30 30 30 30 29 28 26 26 22 16 18 18 12 11 11 12 11 11 12 13 13 14 14 15 15 16 16 16 14 13 14 14 13
Wind_Direction
318 319 323 324 324 325 326 328 338 343 337 336 337 343 345 345 348 5 11 7 6 9 7 17 13 8 5 3 356 351 350 349 344 335 330 327 324 323 319 318 316 310 304 297 295 285 278 307 299 286 292 294 297 294
321 324 326 325 323 328 330 331 339 343 346 346 345 348 350 351 352 5 9 16 15 21 14 16 32 32 28 23 7 5 2 359 356 346 341 337 328 326 322 313 321 311 316 306 301 294 302 305 305 310 305 299 299 297
324 325 324 321 320 320 322 328 338 349 352 349 351 352 352 355 356 7 23 21 20 17 18 28 34 32 30 42 46 15 12 11 4 1 349 342 330 331 319 314 312 316 323 311 305 300 294 292 295 303 305 302 299 298
324 325 324 317 316 315 318 328 343 350 346 354 353 349 352 355 359 12 25 28 27 27 21 26 31 30 33 32 47 69 36 31 25 10 351 345 340 352 333 323 315 311 312 311 302 294 292 293 292 294 294 296 297 297
321 326 323 316 314 315 323 332 340 341 343 351 350 348 350 354 356 17 36 33 38 27 19 24 24 44 40 37 73 87 69 39 23 19 15 4 4 359 356 338 327 337 334 320 249 309 301 291 293 296 293 291 294 293
313 318 321 316 315 317 320 326 329 329 337 342 346 349 349 355 358 24 17 28 27 29 23 20 36 46 37 32 42 62 68 56 46 43 34 32 46 28 41 65 33 350 329 328 320 305 296 283 286 291 291 290 289 287
306 308 313 320 318 315 316 317 319 321 325 333 339 346 351 357 9 19 16 17 32 19 23 26 29 43 40 30 28 35 42 53 63 76 104 122 114 90 124 331 57 9 252 259 255 260 259 256 269 297 293 287 286 286
301 305 307 310 318 317 316 315 313 315 317 323 330 342 346 355 17 13 11 12 35 23 26 26 33 38 26 25 28 19 37 56 68 83 94 130 148 76 70 39 317 279 318 280 328 311 259 260 281 258 288 302 285 270
298 301 304 304 307 312 314 315 311 310 311 314 321 337 359 359 360 3 11 20 18 27 26 31 30 34 14 16 17 26 40 57 72 74 82 68 78 69 40 6 342 305 326 283 277 273 278 263 262 257 271 287 292 296
298 300 298 300 299 301 307 308 308 306 305 314 336 335 335 350 356 9 3 5 10 19 26 31 39 34 25 5 6 10 38 52 59 44 64 66 54 34 20 357 328 308 292 288 277 278 273 267 264 264 262 266 267 272
302 300 298 294 295 295 299 300 303 303 317 321 324 326 335 341 350 354 355 4 9 14 31 31 43 31 20 13 1 15 34 47 33 26 12 37 30 18 5 351 319 302 291 289 277 284 284 298 291 286 269 247 242 238
303 301 297 294 296 297 294 295 302 312 320 317 323 329 330 338 340 344 350 359 9 11 26 24 28 38 20 0 356 357 14 27 30 3 16 26 21 8 343 312 304 301 293 299 287 332 305 359 351 328 311 256 237 235
299 299 297 297 301 299 296 292 296 305 312 317 321 326 331 332 334 342 353 357 3 16 21 22 12 28 15 357 341 350 4 26 42 19 27 33 14 328 315 313 321 314 312 328 342 332 318 355 332 321 291 300 299 323
298 298 292 289 300 306 298 290 292 299 304 308 313 313 323 330 334 346 356 4 6 10 11 12 14 29 12 1 339 329 352 15 4 352 18 32 323 315 318 318 333 333 323 322 320 319 319 323 328 306 285 274 265 257
295 293 300 283 285 290 292 288 291 291 296 299 311 311 313 321 323 332 347 341 348 352 7 7 8 25 25 357 329 320 328 356 28 17 39 329 311 317 331 339 332 334 334 332 329 326 327 328 325 322 315 313 299 274
304 304 293 298 285 283 287 290 294 290 294 296 299 304 312 312 313 326 334 337 347 355 359 3 6 16 32 357 327 304 312 340 8 21 15 40 302 320 332 332 334 340 339 338 339 344 6 1 360 340 337 348 347 348
302 299 308 313 295 286 290 292 292 284 288 291 291 292 294 289 297 316 331 334 344 356 353 359 356 7 15 358 320 305 311 333 332 345 32 57 59 1 343 336 330 335 42 342 1 18 41 36 31 1 357 356 12 38
303 305 309 48 324 291 286 284 285 284 279 282 290 295 289 291 299 310 322 327 340 352 359 357 5 1 13 14 319 303 324 311 312 327 47 94 90 37 10 7 337 334 335 340 359 38 46 33 37 28 39 16 15 18
332 347 16 64 289 285 279 280 283 280 281 288 287 285 290 291 297 299 304 320 341 337 349 354 351 4 353 318 300 300 314 324 311 338 30 100 89 87 75 9 9 320 334 340 349 349 41 59 63 59 60 61 33 6
14 41 34 336 281 279 282 282 289 286 289 293 289 287 293 298 300 306 312 326 335 325 323 331 342 348 328 301 301 295 305 310 315 329 357 30 37 63 79 66 23 23 324 350 2 7 21 35 60 62 51 56 64 46
300 276 285 277 269 269 276 279 280 287 287 290 295 297 296 299 298 301 305 322 314 308 311 339 346 333 323 303 302 294 282 298 315 337 331 271 280 281 129 80 68 58 45 343 351 358 11 23 40 38 38 9 9 35
292 9 309 303 309 304 292 296 296 296 299 299 298 303 301 301 296 300 310 309 304 310 325 308 308 315 316 279 288 288 274 280 284 323 31 203 241 282 15 84 68 56 52 60 49 33 30 57 54 39 32 32 38 26
316 315 311 308 300 302 299 305 304 305 305 308 303 307 305 302 306 319 311 315 313 319 330 332 316 310 291 291 290 283 280 266 260 260 336 253 276 282 22 38 53 52 40 41 58 52 37 29 28 32 35 34 33 32
312 307 304 300 302 303 302 303 306 299 297 295 296 293 296 300 316 312 310 314 318 320 342 340 326 320 299 294 288 285 278 285 288 322 0 17 10 352 345 341 354 36 65 56 41 45 39 31 30 29 28 28 29 30
303 312 313 303 311 304 303 304 302 300 295 295 294 294 301 311 310 311 312 313 321 331 339 324 319 313 294 291 286 284 286 287 309 5 22 11 4 357 355 357 9 23 40 49 37 39 40 37 33 27 25 26 25 26
290 310 317 315 326 336 316 305 309 304 299 295 297 306 309 313 311 311 318 326 334 340 334 320 309 303 293 280 282 283 285 286 313 330 340 25 12 20 30 22 21 14 25 43 41 41 41 39 32 27 25 23 23 23
293 301 315 302 308 314 322 307 302 304 303 307 310 311 315 313 315 318 317 323 322 305 314 316 313 293 280 278 275 276 284 285 301 311 7 25 28 44 31 21 23 21 21 32 38 37 38 36 33 30 28 27 25 25
299 298 304 316 310 300 309 307 308 310 310 310 312 313 313 316 317 307 309 313 316 312 307 305 302 291 273 266 271 279 280 292 317 342 6 12 15 27 28 18 16 18 26 38 47 44 39 37 35 34 30 26 23 22
293 284 288 297 292 296 302 306 300 302 318 331 317 314 314 290 290 289 293 304 309 303 297 297 300 299 271 257 260 270 287 315 334 339 11 16 34 44 34 31 37 34 33 40 50 48 45 41 38 37 33 28 25 20
284 281 288 287 287 290 294 301 302 310 314 313 302 280 274 273 273 283 292 298 282 278 290 293 292 292 268 257 263 277 308 311 68 344 52 101 91 61 65 58 58 58 54 50 49 46 46 46 47 44 36 30 25 21
282 285 281 282 283 282 271 286 295 291 284 265 256 251 245 260 274 278 282 248 249 275 277 265 264 265 254 249 246 272 247 282 278 150 103 49 109 87 86 82 78 68 56 52 47 48 53 60 65 64 54 47 42 37
270 271 277 283 284 288 288 288 273 255 244 242 240 251 262 265 255 271 287 308 307 222 234 247 246 239 230 233 252 261 254 260 321 15 68 67 76 70 83 88 79 66 62 63 64 61 61 60 60 70 71 72 70 64
234 246 253 252 245 233 232 227 230 233 235 232 233 237 240 254 254 280 291 292 226 236 242 234 227 226 225 229 228 243 272 250 245 285 336 47 58 64 75 80 82 80 77 69 66 61 54 48 49 55 62 62 65 75